Regional Weather Roundup
Issued by NWS

Home | Current Version | Previous Version | Graphics & Text | Print | Product List | Glossary On
Versions: 1 2 3 4 5 6 7 8 9 10 11 12 13 14 15 16 17 18 19 20 21 22 23 24 25 26 27 28 29 30 31 32 33 34 35 36 37 38 39 40 41 42 43 44 45 46 47 48 49 50
000
ASUS43 KDTX 251401
RWRMI
MICHIGAN HOURLY REGIONAL WEATHER ROUNDUP
NATIONAL WEATHER SERVICE DETROIT/PONTIAC MI
1000 AM EDT SUN SEP 25 2016

NOTE: "FAIR" INDICATES FEW OR NO CLOUDS BELOW 12,000 FEET WITH NO
SIGNIFICANT WEATHER AND/OR OBSTRUCTION TO VISIBILITY.

MIZ047>049-052>055-059>063-066>070-074>076-081>083-251500-
SOUTHEAST LOWER MICHIGAN

CITY           SKY/WX    TMP DP  RH WIND       PRES   REMARKS
ADRIAN         SUNNY     61  49  64 SE8       30.20F
ALMA           SUNNY     58  53  83 SE6       30.19F
ANN ARBOR      SUNNY     61  53  75 NE3       30.20F
BAD AXE        SUNNY     59  49  71 SE6       30.22F
CARO           SUNNY     57  48  73 SE3       30.21F
DETROIT CITY   SUNNY     64  52  64 SE10      30.21S
DETROIT        PTSUNNY   62  53  72 E6        30.21F
FLINT          SUNNY     59  51  75 S3        30.20F
GROSSE ILE     SUNNY     65  52  64 E7        30.20S
HILLSDALE      HAZE      63  43  48 SE8       30.19R VSB 1
HOWELL         SUNNY     60  54  81 SE7       30.20S

CITY           SKY/WX    TMP DP  RH WIND       PRES   REMARKS
JACKSON        SUNNY     61  50  67 SE10      30.19S
LAMBERTVILLE   SUNNY     64  49  56 E8        30.20S
LANSING        SUNNY     61  50  67 S8        30.19F
LAPEER         FAIR      57  48  71 S7        30.21F
MASON          SUNNY     60  51  72 S10       30.20F
MONROE         SUNNY     65  55  68 SE8       30.19S
MT. CLEMENS    PTSUNNY   62  55  76 SE7       30.19S
PONTIAC        MOSUNNY   61  53  75 E8        30.20F
PORT HOPE        N/A     62  50  64 S7        30.21F
PORT HURON     SUNNY     59  52  77 SE5       30.22S
TRI CITIES     SUNNY     57  50  77 SE5       30.21F
MIDLAND        FAIR      58  47  67 E3        30.20S
TROY           SUNNY     60  51  72 NE3       30.23F
SAGINAW HB     SUNNY     57  46  67 SE5       30.19F
$$
MIZ043>046-050>051-056>058-064>065-071>073-077>080-251500-
SOUTHWEST LOWER MICHIGAN

CITY           SKY/WX    TMP DP  RH WIND       PRES   REMARKS
BATTLE CREEK   CLOUDY    61  52  72 SE6       30.18F
BENTON HARBOR  PTSUNNY   63  53  70 SE14      30.13F
BIG RAPIDS     SUNNY     58  51  77 E3        30.17S
COLDWATER      SUNNY     62  44  52 SE10      30.18S
FREMONT        CLOUDY    56  51  81 SE5       30.15F
HOLLAND        CLOUDY    60  54  80 SE8       30.15F
GRAND RAPIDS   PTSUNNY   59  51  75 SE9       30.17F
IONIA          FAIR      58  49  72 SE9       30.17F
KALAMAZOO      CLOUDY    60  50  69 SE6       30.18F
LUDINGTON      CLOUDY    59  53  78 SE9       30.12F
MARSHALL       SUNNY     61  49  65 SE6       30.18S
MUSKEGON       CLOUDY    60  53  77 SE12      30.14F
SOUTH HAVEN    MOSUNNY   64  55  74 SE8       30.14F
$$
MIZ016>042-251500-
NORTHERN LOWER MICHIGAN

CITY           SKY/WX    TMP DP  RH WIND       PRES   REMARKS
ALPENA         SUNNY     58  50  75 CALM      30.23F
BEAVER ISLAND  CLOUDY    60  53  78 SE7       30.15F
BELLAIRE       PTSUNNY   59  49  68 S5        30.17S
CADILLAC       CLOUDY    57  47  67 SE7       30.17S
CHARLEVOIX     SUNNY     58  49  73 SE9       30.19S
FRANKFORT      PTSUNNY   60  49  66 SE7       30.13S
GAYLORD        MOSUNNY   56  48  74 S9        30.19F
GRAYLING       MOSUNNY   55  49  80 S5        30.19F
HARBOR SPRINGS CLOUDY    56  49  77 E3        30.18S
HOUGHTON LAKE  MOSUNNY   58  46  64 SE8       30.20F
MANISTEE       PTSUNNY   58  50  75 E7        30.13F
OSCODA         SUNNY     61  50  66 S10       30.21S
PELLSTON       CLOUDY    55  48  77 SE6       30.18F
ROGERS CITY    SUNNY     59  49  69 S6        30.22S
TRAVERSE CITY  PTSUNNY   60  47  61 VRB7      30.14F
$$
MIZ007>008-015-251500-
EASTERN UPPER MICHIGAN

CITY           SKY/WX    TMP DP  RH WIND       PRES   REMARKS
KINROSS        CLOUDY    59  50  72 S10       30.19F
MACKINAC ISLAN CLOUDY    58  49  70 S8        30.19R
NEWBERRY       CLOUDY    56  53  91 SE6       30.14F
S. S. MARIE    SUNNY     60  51  72 SE8       30.18F
MUNISING         N/A     61  56  83 S9        30.07F
$$
MIZ004>006-011>014-085-251500-
CENTRAL UPPER MICHIGAN

CITY           SKY/WX    TMP DP  RH WIND       PRES   REMARKS
MANISTIQUE     CLOUDY    63  54  74 S13       30.11F
ESCANABA       CLOUDY    65  58  78 SE10      30.09F
MENOMINEE        N/A     65  59  81 S14G20    30.08S
SAWYER-GWINN   CLOUDY    59  55  88 S12       30.08F
$$
MIZ001>003-009>011-084-251500-
WESTERN UPPER MICHIGAN

CITY           SKY/WX    TMP DP  RH WIND       PRES   REMARKS
IRON MOUNTAIN  CLOUDY    60  55  83 SE9       30.05F
HOUGHTON       CLOUDY    62  55  77 SE13      29.97F
COPPER HARBOR    N/A     64  58  80 SW14G28   29.97F
IRONWOOD       CLOUDY    63  59  87 S10G18    29.92F
$$

ABBREVIATIONS USED IN REMARKS
   TC - TEMPERATURE IN CELSIUS
  WCI - WIND CHILL INDEX
   HX - HEAT INDEX
  VSB - VISIBILITY





USA.gov is the U.S. government's official web portal to all federal, state and local government web resources and services.